Regional Weather Roundup
Issued by NWS Binghamton, NY

Home | Current Version | Previous Version | Text Only | Print | Product List | Glossary On
Versions: 1 2 3 4 5 6 7 8 9 10 11 12 13 14 15 16 17 18 19 20 21 22 23 24 25 26 27
000
ASUS41 KBGM 200010
RWRBGM

REGIONAL WEATHER ROUNDUP
NATIONAL WEATHER SERVICE BINGHAMTON NY
800 PM EDT SAT AUG 19 2017

Note: "fair" indicates few or no clouds below 12,000 feet with no
significant weather and/or obstructions to visibility.

* = Station(s) that does not report precipitation, such as rain,
snow, etc, also no thunder or fog.

NYZ009-015>018-022>025-036-037-044>046-055>057-062-200100
...Central New York...

CITY           SKY/WX    TMP DP  RH WIND       PRES   REMARKS
Binghamton     PTCLDY    61  61 100 CALM      29.90R
Cortland       FAIR      64  64 100 CALM      29.89R
Dansville      MOCLDY    73  58  59 VRB5      29.88R
Elmira         LGT RAIN  68  67  96 S5        29.88R FOG
Seneca Falls   PTCLDY    72  61  68 NW7       29.86S
Ithaca         MOCLDY    66  63  90 SE3       29.87S
Hamilton       PTCLDY    66  61  82 SE3       29.88R
Hornell        CLEAR     70  55  60 NW9       29.94R
Monticello     PTCLDY    73  63  70 SW5       29.90R
Penn Yan       CLOUDY    73  59  61 W5        29.88R
Rome           CLOUDY    74  60  61 CALM      29.83R
Sidney         CLOUDY    61  61 100 CALM      29.90F
Syracuse       MOCLDY    73  61  65 NW15      29.83R
$$

PAZ038>040-043-044-047-048-072-200100
...Northeast Pennsylvania...

CITY           SKY/WX    TMP DP  RH WIND       PRES   REMARKS
Hazleton         N/A     72  61  68 CALM      29.95R
Scranton       CLEAR     77  64  64 SW6       29.88R
$$
&&
KEY
WCI = Wind Chill Index
VSB = Visibility
HX  = Heat Index
$$




USA.gov is the U.S. government's official web portal to all federal, state and local government web resources and services.